Regional Weather Roundup
Issued by NWS

Home | Current Version | Previous Version | Graphics & Text | Print | Product List | Glossary Off
Versions: 1 2 3 4 5 6 7 8 9 10 11 12 13 14 15 16 17 18 19 20 21 22 23 24 25 26 27 28 29 30 31 32 33 34 35 36 37 38 39 40 41 42 43 44 45 46 47 48 49 50

000
ASUS43 KDMX 171301
RWRIA

WEATHER ROUNDUP FOR IOWA
NATIONAL WEATHER SERVICE DES MOINES IA
700 AM CST TUE JAN 17 2017

NOTE: "FAIR" INDICATES FEW OR NO CLOUDS BELOW 12,000 FEET WITH NO
SIGNIFICANT WEATHER AND/OR OBSTRUCTIONS TO VISIBILITY.

* - THESE STATIONS ARE NOT NWS STATIONS...THUS NOT UNDER NWS
QUALITY CONTROL.  THEY ALSO DO NOT REPORT WEATHER SUCH
AS PRECIPITATION OR FOG.

IAZ001>003-012>014-020>022-031>034-043>046-171400-
   NORTHWEST IOWA

CITY           SKY/WX    TMP DP  RH WIND       PRES   REMARKS
CARROLL *      CLOUDY    34  34 100 NW16      29.96S FOG     WCI  23
CHEROKEE *     CLOUDY    28  28 100 NW6       30.00R FOG     WCI  22
DENISON *      CLOUDY    28  28 100 NW7       29.98R FOG     WCI  21
LE MARS *      CLOUDY    21  18  86 W6        30.03F WCI  14
ORANGE CITY *  CLOUDY    21  21 100 W6        30.00R FOG     WCI  14
SHELDON *      CLOUDY    27  27 100 NW9       29.97S FOG     WCI  17
SIOUX CITY     CLOUDY    21  16  81 NW15G23   30.03S WCI   8
SPENCER        CLOUDY    29  28  96 NW9       29.98R WCI  20
STORM LAKE *   FOG       30  30 100 NW16      29.97R VSB 3/4 WCI  19
$$

IAZ055>058-069>071-079>083-090>094-171400-
   SOUTHWEST IOWA

CITY           SKY/WX    TMP DP  RH WIND       PRES   REMARKS
ATLANTIC *     CLOUDY    30  30 100 NW8       30.00R FOG     WCI  23
AUDUBON *      CLOUDY    30  28  93 CALM      29.99R FOG
CLARINDA *     CLOUDY    32  32 100 NW9       30.03R WCI  24
COUNCIL BLFS * CLOUDY    28  28 100 NW13      30.02R WCI  18
CRESTON *      CLOUDY    32  32 100 NW9       29.99R FOG     WCI  24
HARLAN  *      CLOUDY    30  30 100 NW10G16   30.04R FOG     WCI  21
LAMONI         CLOUDY    33  33 100 NW9       29.97R FOG     WCI  25
RED OAK *      CLOUDY    30  30 100 NW13G18   30.03R WCI  20
SHENANDOAH *   CLOUDY    32  30  93 NW9       30.04R WCI  24
$$

IAZ047>049-059>061-072>074-084-171400-
   CENTRAL IOWA

CITY           SKY/WX    TMP DP  RH WIND       PRES   REMARKS
AMES           CLOUDY    33  33 100 NW9       29.94R FOG     WCI  25
ANKENY *       FOG       32  32 100 W6        29.97R VSB 1   WCI  26
BOONE *        CLOUDY    32  32 100 NW10      29.93R FOG     WCI  24
CHARITON *     CLOUDY    32  32 100 NW10      29.96R FOG     WCI  24
DES MOINES     DRIZZLE   34  32  92 NW9       29.97R FOG     WCI  27
GRINNELL*      CLOUDY    32  32  99 W9        29.93R FOG     WCI  25
KNOXVILLE *    FOG       34  32  93 W9        29.94S VSB 1   WCI  26
MARSHALLTOWN   CLOUDY    33  33 100 W8        29.91R FOG     WCI  26
NEWTON *       CLOUDY    32  32 100 W8        29.93R FOG     WCI  25
PELLA *        CLOUDY    33  33  99 W9        29.96R FOG     WCI  25
PERRY *        CLOUDY    33  33 100 NW9       29.96R FOG     WCI  25
$$

IAZ004>006-015-016-023>025-035-036-171400-
   NORTH CENTRAL IOWA

CITY           SKY/WX    TMP DP  RH WIND       PRES   REMARKS
ALGONA *       FOG       32  32 100 N12       29.94S VSB 1/4 WCI  23
CLARION *      FOG       32  32 100 NW15      29.93S VSB 1   WCI  22
ESTHERVILLE    FOG       27  27 100 NW13      29.96R VSB 1   WCI  16
FORT DODGE *   CLOUDY    32  28  86 CALM      29.96R
MASON CITY     CLOUDY    31  30  96 NW10      29.92S FOG     WCI  22
FOREST CITY *  CLOUDY    30  30 100 NW6       29.92S FOG     WCI  24
WEBSTER CITY * CLOUDY    32  32 100 NW14      29.92R FOG     WCI  22
IOWA FALLS *   CLOUDY    33  32  97 NW9       29.92S FOG     WCI  25
$$

IAZ007>011-017>019-026>030-037>042-050>054-066-171400-
   NORTHEAST IOWA

CITY           SKY/WX    TMP DP  RH WIND       PRES   REMARKS
CEDAR RAPIDS   CLOUDY    32  32 100 W9        29.88R FOG     WCI  24
CHARLES CITY * CLOUDY    32  32 100 MISG      29.89S FOG
CLINTON *      FOG       33  33 100 W9        29.86R VSB 1/2 WCI  25
DECORAH *      FOG       32  32 100 NW7       29.85F VSB 1/4 WCI  26
DUBUQUE        CLOUDY    32  32 100 NW12      29.83R FOG     WCI  23
MONTICELLO *   CLOUDY    34  34 100 W7        29.86R FOG     WCI  28
OELWEIN *      CLOUDY    32  32 100 NW12      29.87S FOG     WCI  23
WATERLOO       CLOUDY    33  31  92 NW9       29.89R FOG     WCI  25
$$

IAZ064-065-067-068-078-171400-
   EAST CENTRAL IOWA

CITY           SKY/WX    TMP DP  RH WIND       PRES   REMARKS
DAVENPORT      CLOUDY    34  33  96 W10       29.87R FOG     WCI  26
IOWA CITY      CLOUDY    35  33  92 W8        29.92R FOG     WCI  29
MUSCATINE *    CLOUDY    36  34  93 W13       29.92R WCI  27
QUAD CITIES    CLOUDY    35  33  92 SW9       29.87R FOG     WCI  28
$$

IAZ062-063-075>077-085>089-095>099-171400-
   SOUTHEAST IOWA

CITY           SKY/WX    TMP DP  RH WIND       PRES   REMARKS
BURLINGTON     CLOUDY    36  35  96 W8        29.90F WCI  30
FAIRFIELD *    CLOUDY    34  34 100 W10       29.92S FOG     WCI  26
FORT MADISON * CLOUDY    36  36 100 W9        29.92S WCI  29
KEOKUK *       CLOUDY    36  36 100 W9        29.92R WCI  29
OSKALOOSA *    CLOUDY    32  32  99 W12       29.94R FOG     WCI  23
OTTUMWA        CLOUDY    34  34 100 W8        29.93R FOG     WCI  27
WASHINGTON *   CLOUDY    34  34 100 W8        29.93R FOG     WCI  27
$$

ABBREVIATIONS USED IN REMARKS
   TC - TEMPERATURES IN CELSIUS
  WCI - WIND CHILL INDEX
   HX - HEAT INDEX
  VSB - VISIBILITY
$$




USA.gov is the U.S. government's official web portal to all federal, state and local government web resources and services.